Location: Bower School (historical)
(37.8389°N, 89.5348°W)
Time: 03:22:27
(UTC+00:00)

Daily predictions for brighter satellites

Satellite Brightness Start Highest point End
(mag) Time Altitude Azimuth Time Altitude Azimuth Time Altitude Azimuth
Cosmos 1726 3.0 01:47:53 10° NNE 01:51:10 31° ENE 01:54:26 10° SE
ASTRO E2 4.1 01:48:26 10° SW 01:51:29 21° SSE 01:54:33 10° ESE
Cosmos 1452 Rocket 3.8 01:47:38 10° S 01:52:38 47° ESE 01:57:41 10° NNE
BREEZE-M DEB (TANK) 2.6 01:51:27 10° WNW 01:53:21 33° SW 01:56:35 10° SSE
BREEZE-M DEB (TANK) 1.7 01:51:20 10° SW 01:53:44 70° SE 01:56:26 10° ENE
Cosmos 292 Rocket 3.8 01:50:45 10° S 01:55:34 72° ESE 02:00:23 10° NNE
Cosmos 1766 4.0 01:53:58 10° NNW 01:57:45 54° W 02:01:31 10° S
FALCON 9 DEB 4.1 01:55:31 10° S 01:57:58 22° SE 02:00:27 10° ENE
Cosmos 407 Rocket 4.4 01:56:06 10° NNW 02:01:12 50° WSW 02:06:12 10° S
Cosmos 2360 Rocket 2.7 01:58:51 10° S 02:04:01 39° ESE 02:09:13 10° NE
SL-16 R/B 2.3 02:01:17 10° SSW 02:06:56 83° WNW 02:12:38 10° NNE
Cosmos 2322 Rocket 2.2 02:01:47 10° SSW 02:07:28 77° ESE 02:13:10 10° NNE
Cosmos 1470 2.9 02:04:14 10° N 02:08:10 59° E 02:12:02 10° SSE
OBJECT-B 1.9 02:06:06 10° S 02:09:10 43° W 02:12:14 10° NNW
Meteor 2-10 4.0 02:04:23 10° N 02:09:29 88° E 02:14:43 10° S
ATLAS 3B R/B 3.3 02:06:00 10° SSE 02:11:29 29° ESE 02:17:03 10° NE
FALCON 9 DEB 2.9 02:11:48 10° SSW 02:14:48 51° SE 02:17:49 10° ENE
Cosmos 1378 Rocket 4.1 02:11:54 10° SSW 02:16:10 60° W 02:20:30 10° N
Okean 1 Rocket 3.0 02:12:03 10° N 02:16:26 74° E 02:20:49 10° SSE
SJ-6B 4.0 02:15:04 10° S 02:18:59 44° W 02:22:53 10° NNW
MOS 1 4.4 02:15:06 10° SSE 02:20:48 86° WSW 02:26:33 10° NNW
FALCON 9 DEB 3.1 02:18:43 10° SSW 02:21:41 43° SE 02:24:40 10° ENE
Cosmos 2227 4.4 02:16:08 10° NNW 02:21:43 70° WSW 02:27:18 10° SSE
FALCON 9 DEB 2.8 02:21:59 10° SW 02:25:02 63° SE 02:28:07 10° NE
IGS 5A 3.7 02:22:05 12° SSE 02:25:44 54° ENE 02:29:49 10° N
Resurs 1-3 3.8 02:21:24 10° S 02:25:47 76° WSW 02:30:10 10° NNW
USA 186 4.4 02:24:50 10° SW 02:26:34 15° W 02:28:23 10° NW
COSMOS 2428 4.1 02:28:13 15° SE 02:30:48 19° E 02:34:45 10° NE
Cosmos 1461 4.1 02:29:17 10° N 02:32:58 30° NE 02:35:32 16° ESE
Cosmos 2237 4.2 02:29:29 10° SSW 02:35:11 88° WNW 02:40:55 10° NNE
Terra 3.9 02:34:02 10° E 02:36:02 13° ENE 02:38:05 10° NE
Cosmos 1315 Rocket 3.1 02:32:07 10° NNW 02:36:14 69° W 02:40:17 10° S
Cosmos 1626 3.3 02:36:00 20° SE 02:37:25 25° E 02:40:31 10° NE
ATLAS CENTAUR R/B 3.7 02:34:58 10° N 02:37:44 16° NE 02:40:34 10° E
Cosmos 1707 3.5 02:34:54 10° SSW 02:38:40 53° W 02:42:30 10° N
Cosmos 1741 Rocket 4.3 02:34:55 10° N 02:40:05 55° ENE 02:43:44 19° SE
Cosmos 1844 Rocket 3.4 02:35:08 10° N 02:40:27 39° ENE 02:44:09 18° ESE
Cosmos 1025 Rocket 3.8 02:38:31 19° SE 02:40:57 33° E 02:44:53 10° NNE
Meteor 2-20 Rocket 4.4 02:36:00 10° S 02:42:07 84° E 02:48:14 10° N
Ariane Rocket 3.7 02:40:00 10° S 02:44:56 52° W 02:49:55 10° NNW
USA 215 4.5 02:41:24 10° E 02:45:32 17° ESE 02:45:41 17° ESE
SPOT 3 Rocket 3.5 02:41:59 15° SSE 02:46:16 81° ENE 02:51:29 10° N
SL-4 R/B 3.6 02:49:24 18° E 02:49:24 18° E 02:50:55 10° E
CZ-2C R/B 3.7 02:45:26 10° NNE 02:50:13 75° ESE 02:54:57 10° S
Cosmos 2173 Rocket 4.3 02:46:59 10° N 02:53:14 54° E 02:57:24 21° SSE
CARTOSAT-1 4.4 02:52:07 23° ESE 02:54:05 35° ENE 02:58:01 10° N
Cosmos 2263 Rocket 3.8 02:49:44 10° NW 02:54:38 30° WSW 02:59:30 10° SSW
Lacrosse 5 2.5 02:50:31 10° NW 02:55:21 46° SW 02:58:35 20° S
Lacrosse 5 rocket 2.5 02:52:47 10° WSW 02:56:20 40° NW 02:59:46 10° NNE
MetOp-B 4.1 02:52:22 19° SSE 02:56:20 81° ENE 03:01:42 10° N
Cosmos 1758 4.0 02:52:56 10° NNW 02:56:48 52° W 03:00:01 14° SSW
In-Cosmos 22 4.5 02:52:33 10° SSW 02:57:46 63° W 03:03:01 10° N
ATLAS 2A CENTAUR R/B 3.7 02:46:23 10° SW 03:00:44 28° S 03:03:32 22° SSE
USA 245 4.1 02:58:44 24° SSE 03:01:37 68° ENE 03:07:17 10° N
Landsat 7 4.1 02:59:40 17° S 03:03:18 66° WSW 03:08:03 10° NNW
Cosmos 1975 Rocket 3.4 02:59:09 10° SSW 03:03:27 66° W 03:07:50 10° N
BREEZE-M DEB (TANK) 3.8 03:05:24 10° NNW 03:07:48 20° NNE 03:08:35 17° NE
Cosmos 405 4.4 03:05:50 10° NNE 03:08:35 22° ENE 03:08:44 22° E
Cosmos 1110 Rocket 4.2 03:03:33 10° SSW 03:08:41 70° WNW 03:13:53 10° NNE
Cosmos 2333 4.1 03:03:04 10° SSW 03:08:49 78° ESE 03:14:33 10° NNE
Resurs 01 Rocket 2.6 03:06:34 14° SSW 03:10:06 42° W 03:14:18 10° NNW
SL-14 R/B 3.6 03:12:10 37° SE 03:13:13 47° E 03:17:07 10° NNE
Meteor 2-5 Rocket 4.2 03:14:25 29° SE 03:16:32 42° E 03:21:45 10° NNE
Cosmos 1953 2.5 03:17:44 10° NNW 03:21:47 67° W 03:23:32 32° SSW
Cosmos 2333 Rocket 2.1 03:16:30 10° SSW 03:22:15 82° ESE 03:28:00 10° NNE
Cosmos 1674 4.0 03:19:14 11° SSW 03:22:31 36° W 03:25:59 10° N
Cosmos 2219 Rocket 2.1 03:19:18 16° S 03:23:52 72° ESE 03:29:32 10° NNE
BREEZE-M DEB (TANK) 3.4 03:25:11 10° W 03:27:23 31° NNW 03:30:49 10° NE
Cosmos 1802 Rocket 4.0 03:23:53 10° N 03:30:13 83° E 03:33:34 30° S
ASTRO E2 4.0 03:27:50 10° WSW 03:30:13 26° SSW 03:30:13 26° SSW
Meteor 2-11 Rocket 4.4 03:28:14 10° N 03:34:21 82° W 03:37:36 29° S
Cosmos 1459 Rocket 4.1 03:28:41 10° N 03:34:43 72° W 03:38:14 26° S
Cosmos 1844 3.6 03:29:17 10° NNW 03:34:52 89° WSW 03:37:07 38° SSE
Cosmos 1300 2.9 03:38:21 10° N 03:42:05 53° E 03:42:05 53° E
Cosmos 2237 Rocket 3.2 03:44:17 28° E 03:44:17 28° E 03:48:45 10° NE
Geosat 4.0 03:42:57 45° SE 03:44:28 74° ENE 03:49:30 10° NNW
ERS-1 Rocket 2.9 03:44:13 44° SSE 03:45:50 88° WSW 03:50:54 10° NNW
ARIANE 5 R/B 3.0 03:45:36 40° SSW 03:46:57 60° W 03:51:23 10° NNW
Cosmos 1340 3.3 03:46:02 38° SW 03:47:06 53° W 03:50:48 10° N
Cosmos 2360 Rocket 4.2 03:43:19 10° WSW 03:48:05 28° WNW 03:52:53 10° N
Spot 2 Rocket 3.9 03:46:39 32° SSW 03:48:44 54° W 03:53:43 10° NNW
Cosmos 1544 Rocket 4.1 03:45:12 10° NNW 03:49:33 55° W 03:50:54 38° SSW
Meteor 1-24 Rocket 3.5 03:49:56 47° SSE 03:51:26 70° E 03:56:51 10° NNE
NOSS 0 Rocket 4.0 03:58:46 46° SSE 04:00:17 58° ESE 04:06:23 10° NNE
ATLAS 3B R/B 3.5 03:55:31 10° SW 04:01:48 49° NW 04:08:18 10° NNE
SL-8 R/B 3.5 03:57:36 10° WNW 04:02:24 83° SW 04:02:55 70° SE
Cosmos 2061 Rocket 4.4 04:04:10 10° NNW 04:10:28 61° W 04:13:09 35° SSW
Terra 1.9 04:12:29 57° SSW 04:13:11 66° WSW 04:17:56 10° NNW
Cosmos 389 Rocket 3.9 04:10:30 10° N 04:12:39 31° NNE 04:12:39 31° NNE
COSMOS 2428 3.4 04:10:08 16° SW 04:14:34 53° WNW 04:20:12 10° NNE
Cosmos 1346 Rocket 3.0 04:17:00 68° N 04:17:00 68° N 04:20:33 10° N
ATLAS CENTAUR R/B 1.7 04:12:32 10° NW 04:16:56 62° WSW 04:16:58 62° WSW
SPOT 5 3.8 04:16:00 35° SW 04:17:20 43° W 04:22:03 10° NNW
Cosmos 2233 Rocket 3.9 04:11:51 10° N 04:18:02 89° W 04:19:39 53° S
Cosmos 1447 Rocket 4.4 04:18:38 50° S 04:20:24 88° E 04:26:38 10° N
Cosmos 2278 Rocket 2.8 04:16:05 10° N 04:21:31 44° ENE 04:22:35 40° E
Cosmos 1844 Rocket 4.2 04:19:26 10° NW 04:24:05 26° WSW 04:25:49 23° SW
SL-4 R/B 2.8 04:23:58 16° WSW 04:27:07 50° NW 04:30:54 10° NE
USA 215 3.1 04:22:31 10° NE 04:29:05 80° SE 04:32:56 27° SW
Cosmos 2228 3.1 04:24:56 10° N 04:29:00 75° NNE 04:29:00 75° NNE
Cosmos 1867 3.4 04:36:35 10° NNW 04:42:06 85° ENE 04:42:25 79° SE
Cosmos 1943 Rocket 4.4 04:47:03 10° NNE 04:50:07 15° NE 04:52:30 12° E
Cosmos 1607 4.3 04:44:15 10° NNW 04:50:32 56° NE 04:51:54 47° E
Meteor 2-10 Rocket 3.8 04:46:11 10° NNW 04:51:06 54° W 04:51:13 54° W
Cosmos 968 Rocket 4.1 04:48:35 10° NNW 04:53:26 44° WSW 04:53:28 44° WSW
Cosmos 2346 Rocket 4.4 04:53:35 62° ESE 04:53:59 63° E 05:00:05 10° NNE
Cosmos 1980 3.9 04:53:23 51° WSW 04:54:38 65° WNW 05:00:18 10° NNE
Cosmos 1486 Rocket 4.2 04:50:38 10° NNW 04:55:40 58° W 04:55:40 58° W
Okean 1-7 Rocket 4.2 05:02:36 51° NNE 05:02:36 51° NNE 05:06:01 10° NNE
Cosmos 1464 Rocket 3.9 05:00:24 10° N 05:06:48 80° E 05:07:30 71° SE
Cosmos 1455 3.7 05:03:58 10° NNW 05:06:21 36° NNW 05:06:21 36° NNW
ATLAS CENTAUR R/B 2.7 05:08:15 68° WSW 05:08:54 80° NW 05:19:09 10° NE
Spot 4 4.0 05:10:00 71° NNW 05:10:00 71° NNW 05:14:15 10° NNW
Cosmos 1354 Rocket 4.0 05:06:10 10° NNW 05:11:17 82° NNW 05:11:17 82° NNW
Cosmos 2058 Rocket 3.7 05:10:59 10° N 05:14:26 53° NNW 05:14:26 53° NNW
Meteor 2-1 Rocket 4.1 05:12:55 10° N 05:18:25 88° N 05:18:25 88° N
Cosmos 1816 Rocket 4.3 05:21:22 74° ESE 05:21:36 75° E 05:27:43 10° N
SL-16 R/B 2.2 05:25:28 68° ENE 05:25:28 68° ENE 05:30:40 10° NNE
Cosmos 2237 Rocket 3.4 05:26:03 29° W 05:27:53 36° WNW 05:33:04 10° N
SJ 16-02 2.9 05:27:39 10° N 05:30:54 28° NE 05:30:54 28° NE
GP-B 4.4 05:31:09 10° NNE 05:34:10 34° NE 05:34:10 34° NE
Cosmos 2369 Rocket 4.2 05:37:25 10° N 05:41:38 21° NE 05:44:11 16° E
Cosmos 2034 Rocket 3.8 05:36:12 10° N 05:42:23 77° W 05:42:38 76° WSW
ALOS 2 3.5 05:43:59 45° NNW 05:43:59 45° NNW 05:47:08 10° NNW
USA 229 DEB 3.7 05:44:47 57° ESE 05:44:47 57° ESE 05:50:57 10° NE
USA 229 3.7 05:44:55 56° ESE 05:44:55 56° ESE 05:51:03 10° NE
GEOS 3 Rocket 3.8 05:47:15 67° WNW 05:47:15 67° WNW 05:52:03 10° NW
NOSS 3-1 (C) 3.2 05:53:14 75° NW 05:53:14 75° NW 05:59:06 10° NNE
BREEZE-M DEB (TANK) 3.9 05:57:01 61° SE 05:57:14 62° SE 06:14:04 10° NE
Aureole 3 4.5 05:59:48 10° N 06:02:49 48° NNE 06:02:49 48° NNE
NOSS 3-1 (A) 3.3 06:04:54 65° ENE 06:04:54 65° ENE 06:10:07 10° NE
Cosmos 2278 Rocket 3.8 06:00:52 10° NW 06:04:25 23° W 06:04:25 23° W
Tsikada Rocket 4.1 06:05:58 57° W 06:06:24 59° W 06:12:29 10° N
Cosmos 2297 3.7 06:01:39 10° NNW 06:07:10 79° NE 06:07:10 79° NE
USA 32 4.3 06:03:35 10° N 06:08:14 63° NW 06:08:14 63° NW
Cosmos 1763 Rocket 4.0 06:15:44 50° ENE 06:15:44 50° ENE 06:19:53 10° NNE
Cosmos 1758 Rocket 4.5 06:17:12 46° NNW 06:17:12 46° NNW 06:20:26 10° N
Thor Agena Rocket 3.9 06:18:59 10° N 06:23:55 54° WNW 06:23:55 54° WNW
Meteor 1-27 4.1 06:18:45 10° N 06:24:10 82° NE 06:24:10 82° NE
In-Cosmos 22 Rocket 4.1 06:26:02 80° ENE 06:26:02 80° ENE 06:31:20 10° N
Cosmos-2242 4.0 06:22:11 10° N 06:25:20 46° NNW 06:25:20 46° NNW
Resurs 1-4 Rocket 3.9 06:23:39 10° NE 06:27:23 19° E 06:27:37 19° E
Cosmos 1825 4.1 06:32:05 27° NE 06:32:05 27° NE 06:34:06 10° NNE
Cosmos 1943 Rocket 2.2 06:28:58 10° NNW 06:33:59 71° WNW 06:33:59 71° WNW
PSLV R/B 4.5 06:30:56 10° N 06:34:18 46° NNW 06:34:18 46° NNW
X-37B 3.8 06:37:56 13° NE 06:37:56 13° NE 06:38:24 10° NE
Cosmos 1943 3.2 06:38:48 68° E 06:38:48 68° E 06:44:12 10° NNE
Cosmos 405 Rocket 4.4 06:44:03 31° NNE 06:44:03 31° NNE 06:46:04 10° N
USA 267 3.1 06:41:13 57° SE 06:42:43 86° SW 06:49:18 10° NW
CZ-2D R/B 3.4 06:42:31 10° NE 06:46:57 28° E 06:47:12 27° E
Cosmos 1603 3.6 06:47:29 85° ESE 06:47:30 85° ESE 06:53:12 10° NNE
Cosmos 2058 4.0 06:49:06 40° NE 06:49:06 40° NE 06:51:59 10° NNE
Cosmos 540 Rocket 3.5 06:54:25 70° ENE 06:54:25 70° ENE 06:59:10 10° NNE
Cosmos 2221 3.6 06:51:59 10° N 06:55:40 40° ENE 06:55:40 40° ENE
Cosmos 2279 Rocket 3.9 06:52:41 10° NNW 06:58:52 67° W 06:59:19 65° WSW
DELTA 2 R/B (1) 3.4 06:59:52 87° ENE 06:59:52 87° ENE 07:05:20 10° ENE
USA 307 4.0 07:02:26 39° ENE 07:02:26 39° ENE 07:05:13 10° NE
Cosmos 990 Rocket 4.0 06:57:55 10° NNW 07:02:41 72° NW 07:02:41 72° NW
Cosmos 841 Rocket 3.4 07:03:21 74° E 07:03:21 74° E 07:08:20 10° NNE
YAOGAN 11 4.4 07:05:57 66° N 07:05:57 66° N 07:09:53 10° N
Cosmos 1633 4.5 07:09:34 25° ENE 07:09:34 25° ENE 07:11:39 10° NNE
SL-16 R/B 4.3 07:07:19 13° W 07:09:42 17° NW 07:13:16 10° NNW
SJ 16-02 3.6 07:06:33 10° NW 07:07:51 16° WNW 07:07:51 16° WNW
Cosmos 1656 Rocket 3.8 07:08:35 10° NNW 07:14:17 71° ENE 07:15:31 53° SE
USA 308 3.4 07:17:46 56° NE 07:17:46 56° NE 07:21:11 10° NE
Cosmos 1937 Rocket 3.5 07:11:53 10° NNW 07:17:14 79° ENE 07:17:47 70° SE
Cosmos 1898 Rocket 3.4 07:12:07 10° NNW 07:17:07 72° W 07:17:07 72° W
Helios 1B rocket 3.6 07:15:52 10° NNE 07:19:18 36° E 07:19:18 36° E
USA 290 4.4 07:22:19 25° NE 07:22:19 25° NE 07:23:55 10° NNE
ARGOS Delta rocket 4.1 07:18:59 10° NNE 07:24:30 75° E 07:25:12 65° SSE
Cosmos 1606 3.6 07:20:53 10° N 07:24:03 46° NE 07:24:03 46° NE
Helios 1A 3.6 07:26:31 49° NW 07:26:31 49° NW 07:29:45 10° NNW
Cosmos 2369 Rocket 2.3 07:20:27 10° NNW 07:25:56 57° WSW 07:25:56 57° WSW
NOSS 2-2 (E) 4.2 07:30:04 41° N 07:30:04 41° N 07:32:36 10° NNE
Nadezhda 4 Rocket 4.0 07:29:04 56° SW 07:30:04 63° W 07:36:09 10° N
CZ-4 R/B 4.4 07:25:53 10° N 07:30:18 45° WNW 07:30:18 45° WNW
Cosmos 2026 Rocket 4.3 07:29:40 42° SSE 07:31:37 61° E 07:37:50 10° NNE
Cosmos 1814 Rocket 3.8 07:32:43 76° SSW 07:33:09 87° WNW 07:38:21 10° NNE
ATLAS 5 CENTAUR R/B 1.6 07:34:05 63° NNE 07:34:05 63° NNE 07:37:41 10° NNE
USA 305 3.4 07:34:41 53° NW 07:34:41 53° NW 07:38:50 10° NE
Meteor 2-15 4.5 07:29:21 10° N 07:35:31 74° E 07:37:35 43° SSE
Cosmos 2263 4.1 07:34:48 10° NNW 07:40:22 60° WSW 07:40:42 59° SW
Lacrosse 4 Rocket 3.0 07:38:41 10° N 07:42:21 32° ENE 07:44:51 17° ESE
NOSS 2-2 (C) 3.9 07:43:31 47° N 07:43:31 47° N 07:46:17 10° NNE
Cosmos 1570 Rocket 3.9 07:43:24 62° WSW 07:44:02 69° WNW 07:49:16 10° NNE
SL-19 R/B 4.4 07:39:27 10° NNE 07:44:43 61° ESE 07:46:09 45° SSE
Cosmos 1437 Rocket 4.3 07:41:34 10° NNW 07:43:43 26° NW 07:43:43 26° NW
Aureole 3 Rocket 3.4 07:43:03 10° N 07:47:20 85° E 07:48:33 54° SSE
Cosmos 372 Rocket 3.9 07:46:04 10° NNW 07:51:20 90° ENE 07:52:44 50° SSE
Cosmos 1932 4.4 07:49:54 10° NW 07:55:58 58° WSW 07:57:19 47° SSW
Cosmos 2098 Rocket 4.3 07:56:36 36° W 07:57:05 36° W 08:01:29 10° NNW
USA 306 4.0 07:56:16 33° WNW 07:57:10 36° NW 08:01:07 10° NNE
Cosmos 921 Rocket 4.0 07:59:46 33° WNW 07:59:46 33° WNW 08:03:32 10° N
Cosmos 2208 Rocket 4.2 07:58:36 50° WSW 07:59:45 63° WNW 08:05:10 10° NNE
ADEOS Rocket 3.7 07:53:19 13° SSE 07:59:50 63° ENE 08:06:28 10° N
SL-16 R/B 2.4 08:00:14 40° S 08:02:36 74° WSW 08:08:48 10° NNW
Resurs 1-4 Rocket 2.5 08:02:19 10° N 08:07:25 48° WNW 08:08:42 40° WSW
Cosmos 1092 Rocket 4.3 08:09:41 39° SW 08:11:27 50° W 08:17:24 10° N
Cosmos 2151 3.0 08:11:14 58° W 08:11:30 59° W 08:15:40 10° N
X-37B 2.8 08:10:19 10° NW 08:13:04 26° NNE 08:15:48 10° ENE
CZ-4C R/B 3.0 08:12:05 27° SSE 08:13:38 33° ESE 08:18:23 10° NE
Cosmos 1242 Rocket 4.4 08:14:04 10° NW 08:15:50 21° WNW 08:15:50 21° WNW
ADEOS II 2.0 08:13:18 10° NNE 08:18:36 86° WNW 08:20:33 40° SSW
NPP 4.1 08:15:06 10° N 08:20:16 48° WNW 08:21:57 36° WSW
Meteor 2-3 Rocket 3.6 08:20:41 39° SSW 08:22:50 77° W 08:28:26 10° N
IRIDIUM 106 4.4 08:19:44 10° N 08:24:58 76° E 08:27:59 26° S
CZ-2D R/B 3.1 08:22:22 10° N 08:26:57 32° WNW 08:28:31 27° W
AQUA 4.4 08:25:01 10° N 08:29:31 43° WNW 08:30:49 35° WSW
IDEFIX/ARIANE 42P 2.8 08:27:18 10° NNE 08:32:32 67° ESE 08:35:30 26° S
GPS 2-04 Rocket1 2.6 08:32:08 55° SW 08:32:44 64° S 08:36:35 10° E
ERBS 2.4 08:35:36 52° WNW 08:35:55 55° NW 08:39:05 10° NNE
Cosmos 1655 Rocket 4.2 08:32:03 20° S 08:36:28 69° E 08:42:40 10° NNE
Delta 2 Rocket 3.7 08:37:21 40° S 08:37:46 41° SSE 08:41:25 10° E
Cosmos 1271 Rocket 3.4 08:38:08 10° N 08:41:48 50° E 08:44:52 14° SSE
Cosmos 1782 2.7 08:37:46 10° N 08:41:48 87° E 08:43:51 28° S
Cosmos 2084 Rocket 4.3 08:41:46 25° SSE 08:43:18 36° ESE 08:46:57 10° NE
CZ-4C R/B 3.6 08:42:57 16° SSE 08:45:33 54° ENE 08:48:56 10° N
DELTA 2 R/B (1) 3.7 08:40:50 10° W 08:46:23 75° N 08:51:57 10° E
Meteor 1-26 Rocket 4.3 08:42:01 10° NNW 08:47:52 70° W 08:52:29 18° S
CBERS-1 4.0 08:44:55 10° N 08:50:02 71° WNW 08:52:54 27° SSW
IRS-1D 3.7 08:45:40 10° N 08:50:39 54° WNW 08:53:07 28° SW
Helios 1B rocket 4.3 08:52:03 10° NNW 08:54:35 16° WNW 08:55:36 15° W
CZ-2C R/B 4.3 08:50:55 10° NE 08:54:53 24° E 08:58:44 10° SSE
IRS-1C 4.2 08:52:41 10° NNE 08:58:03 77° ESE 09:02:14 17° S
Tianhe-1 1.5 08:58:01 39° S 08:58:38 45° SSE 09:01:40 10° E
Cosmos 1328 Rocket 3.5 08:57:20 10° N 09:01:43 84° W 09:05:31 14° S
Cosmos 2292 Rocket 4.5 09:03:15 17° WNW 09:03:15 17° WNW 09:05:18 10° NNW
Spot 1 4.4 09:01:33 10° SSE 09:06:40 88° WSW 09:11:37 10° NNW
Meteor 1-28 Rocket 3.8 09:05:33 27° SW 09:06:54 37° W 09:10:27 10° NNW
ATLAS 2A CENTAUR R/B 3.9 09:06:09 18° S 09:07:14 20° SSE 09:12:31 10° ESE
Cosmos 773 Rocket 4.3 09:03:52 15° S 09:08:13 65° ESE 09:13:28 10° NNE
Cosmos 44 4.0 09:07:13 16° S 09:11:14 56° ESE 09:16:31 10° NE
Cosmos 1553 Rocket 4.4 09:05:54 10° NNW 09:11:45 43° W 09:16:15 16° SSW
MSX 3.8 09:08:02 10° N 09:13:47 73° WNW 09:18:34 15° SSW
SeaSat 1 2.6 09:11:57 10° NNE 09:16:50 63° WNW 09:20:26 18° SW
S3M 4.1 09:12:03 10° NNW 09:18:04 59° W 09:24:10 10° S
ATLAS 5 CENTAUR R/B 4.0 09:18:19 10° NW 09:18:55 10° NW 09:19:32 10° NNW
ALOS 4.3 09:16:18 10° NE 09:20:09 25° E 09:23:59 10° SSE
Lacrosse 4 Rocket 2.8 09:17:57 10° WNW 09:20:45 18° WSW 09:21:02 18° WSW
USA 281 3.2 09:15:15 10° SSE 09:21:48 73° WSW 09:28:23 10° NNW
Cosmos 1151 Rocket 3.8 09:20:35 10° NNW 09:24:23 32° W 09:27:04 17° SW
FALCON 9 DEB 3.8 09:23:56 10° WNW 09:26:58 30° SW 09:29:58 10° SSE
SL-4 R/B 4.4 09:26:14 10° NNW 09:28:59 21° NNE 09:31:39 10° ENE
Meteor 1-10 Rocket 4.3 09:24:02 10° N 09:29:55 89° E 09:35:38 10° S
Meteor 2-6 Rocket 4.3 09:25:46 10° NNW 09:31:35 66° W 09:37:13 10° S
Cosmos 1408 Rocket 4.1 09:29:02 15° SSW 09:32:21 43° W 09:36:38 10° N
Cosmos 1833 Rocket 2.7 09:27:13 12° SSW 09:32:25 87° WNW 09:38:06 10° NNE
Cosmos 1515 Rocket 3.6 09:28:48 10° NNW 09:33:12 68° W 09:37:36 10° S
Cosmos 1862 4.1 09:30:47 16° SW 09:33:33 36° WNW 09:37:19 10° N
Alouette 2 Rocket 4.4 09:31:25 10° NW 09:34:40 28° W 09:38:39 10° SSW
NOSS 3-4 (A) 3.9 09:29:51 10° SSW 09:35:28 54° ESE 09:41:20 10° NE
NOSS 3-4 (C) 3.9 09:30:00 10° SSW 09:35:35 54° ESE 09:41:27 10° NE
Cosmos 1125 Rocket 4.4 09:32:38 10° NW 09:37:09 30° W 09:41:41 10° SSW
Lacrosse 5 rocket 2.9 09:35:00 10° NNW 09:38:24 36° NE 09:41:53 10° ESE
CZ-4B R/B 3.8 09:35:48 10° N 09:40:56 56° WNW 09:45:58 10° SSW
BREEZE-M DEB (TANK) 2.6 09:38:51 12° WSW 09:42:58 89° SSE 09:45:47 10° ENE
ARIANE 5 R/B 2.8 09:38:50 10° N 09:43:38 48° WNW 09:48:26 10° SW
FENGYUN 3A 4.4 09:38:52 10° NNE 09:44:11 53° E 09:49:28 10° S
NOSS 3-2 (A) 4.3 09:37:21 10° NNW 09:45:12 86° ENE 09:53:56 10° SSE
ADEOS Rocket 4.5 09:40:16 11° SW 09:45:31 23° W 09:50:47 10° NW
Meteor 1-27 Rocket 3.9 09:40:07 10° N 09:45:42 74° E 09:51:11 10° SSE
ATLAS 2AS CENTAUR R/B 4.1 09:39:06 10° S 09:46:20 42° ESE 09:53:34 10° NE
Gbstr 26 Del rocket 4.0 09:42:00 10° SSW 09:46:24 49° SE 09:51:52 10° ENE
X-37B 0.5 09:46:47 10° WNW 09:49:57 83° SSW 09:53:07 10° ESE
Cosmos 2082 Rocket 2.5 09:50:18 10° SSW 09:55:52 72° ESE 10:01:28 10° NNE
ADEOS II 4.3 09:56:44 10° NW 09:57:26 10° WNW 09:58:08 10° WNW
FALCON 9 DEB 2.8 09:57:11 10° NW 10:00:19 82° SW 10:03:25 10° SE
NOSS 7 (H) 4.5 09:57:52 10° SSW 10:01:53 88° SE 10:05:02 10° NNE
CZ-4C R/B 3.3 09:57:49 10° WSW 10:02:05 29° NW 10:07:03 10° NNE
OAO 3 Rocket 3.7 10:01:02 10° WSW 10:05:33 45° SSE 10:10:09 10° E
